Regional Weather Roundup
Issued by NWS

Home | Current Version | Previous Version | Graphics & Text | Print | Product List | Glossary On
Versions: 1 2 3 4 5 6 7 8 9 10 11 12 13 14 15 16 17 18 19 20 21 22 23 24 25 26 27 28 29 30 31 32 33 34 35 36 37 38 39 40 41 42 43 44 45 46 47 48 49 50
000
ASUS45 KSLC 271610
RWRUT

UTAH REGIONAL WEATHER ROUNDUP
NATIONAL WEATHER SERVICE SALT LAKE CITY UT
1000 AM MDT FRI MAR 27 2015

UTZ001>011-023>025-271700-

NORTHERN UTAH

CITY           SKY/WX    TMP DP  RH WIND       PRES   REMARKS
BRIGHAM CITY   SUNNY     47  37  67 CALM      30.35S
HILL AFB       SUNNY     49  30  47 E10       30.34R
LOGAN          SUNNY     42  34  73 CALM      30.35S
OGDEN          SUNNY     52  31  44 N5        30.33S
PROVO AIRPORT  SUNNY     48  28  46 CALM      30.36S
SALT LAKE CITY SUNNY     51  32  48 S3        30.34R
VERNAL         SUNNY     51  26  37 SE6       30.32F
WENDOVER       SUNNY     48  27  43 SE5       30.33S
HEBER CITY     SUNNY     39  28  65 CALM      30.38S THUNDER
WEST JORDAN    SUNNY     54  34  47 S8        30.34S

$$

UTZ012>022-026-027-271700-

SOUTHERN/CENTRAL UTAH

CITY           SKY/WX    TMP DP  RH WIND       PRES   REMARKS
BLANDING       SUNNY     54  21  27 S3        30.41R
BRYCE CANYON   SUNNY     47  28  47 NE3       30.41S
CEDAR CITY     SUNNY     48  27  44 CALM      30.33S
DELTA          SUNNY     49  28  43 NE6       30.33F
HANKSVILLE     SUNNY     48  21  34 CALM      30.33S
MILFORD        SUNNY     46  26  45 S5        30.34S
MOAB/CYNLANDS  SUNNY     53  19  26 CALM      30.30S
PRICE          SUNNY     52  24  33 S3        30.32R
ST GEORGE      SUNNY     59  27  29 CALM      30.28S
KANAB          SUNNY     52  28  40 CALM      30.35S

$$

REGIONAL REPORTS     COLORADO/ARIZONA

CITY           SKY/WX    TMP DP  RH WIND       PRES   REMARKS
CRAIG, CO      SUNNY     47  33  58 CALM      30.35S
GRAND JUNCTION SUNNY     50  24  36 S7        30.32F
RIFLE          SUNNY     46  25  43 CALM      30.35F
MONTROSE       SUNNY     49  23  36 CALM      30.37S
CORTEZ         SUNNY     54  23  30 CALM      30.34S
PAGE, AZ       SUNNY     56  23  27 NW3       30.30S
GRAND CANYON   SUNNY     59  18  20 VRB3      30.37S
KINGMAN        SUNNY     66  24  20 N3        30.22R
FLAGSTAFF      SUNNY     55  18  23 VRB3      30.39R

$$

REGIONAL REPORTS    NEVADA/IDAHO/WYOMING

CITY           SKY/WX    TMP DP  RH WIND       PRES   REMARKS
LAS VEGAS, NV  SUNNY     71  27  19 S3        30.16R
ELY            SUNNY     50  24  36 S8        30.35S
ELKO           SUNNY     45  30  55 CALM      30.32S
POCATELLO, ID  SUNNY     49  35  58 NW6       30.31S
BURLEY         SUNNY     48  36  63 CALM      30.26F
EVANSTON, WY   MOSUNNY   45  29  53 SW10      30.37S
ROCK SPRINGS   SUNNY     48  29  47 W8        30.33R
KEMMERER       SUNNY     43  32  65 W12       30.36S

$$



USA.gov is the U.S. government's official web portal to all federal, state and local government web resources and services.